User: anonymous
Location: Caltech
(34.1382°N, 118.1253°W)
Time: 00:37:22
(UTC-07:00)
Language:

Oscar 16 - Orbit

View from above orbital plane
View from above orbital plane
View from above satellite
View from above satellite

Ground track
Ground track

The orbit data is extracted from the following two-line orbital elements,

1 20439U 90005D   14243.81616811  .00000066  00000-0  40545-4 0  1017
2 20439 098.5099 179.7407 0009697 298.0563 085.9805 14.32380565285310
Epoch (UTC): 31 August 2014 19:35:16
Eccentricity: 0.0009697
inclination: 98.5099°
perigee height: 777 km
apogee height: 791 km
right ascension of ascending node: 179.7407°
argument of perigee: 298.0563°
revolutions per day: 14.32380565
mean anomaly at epoch: 85.9805°
orbit number at epoch: 28531

The dashed part of the orbit path shows where the satellite is in the earth's shadow,  

DLR